Regional Weather Roundup
Issued by NWS Goodland, KS

Home | Current Version | Previous Version | Graphics & Text | Print | Product List | Glossary On
Versions: 1 2 3 4 5 6 7 8 9 10 11 12 13 14 15 16 17 18 19 20 21 22 23 24 25 26 27 28 29 30 31 32 33 34 35 36 37 38 39 40 41 42 43 44 45 46 47 48 49 50
000
ASUS43 KGLD 130359
RWRGLD

GOODLAND FORECAST AREA HOURLY WEATHER ROUNDUP
NATIONAL WEATHER SERVICE GOODLAND KS
900 PM MST FRI FEB 12 2016

...OFFICIAL OBSERVATIONS...

CITY           SKY/WX    TMP DP  RH WIND       PRES   REMARKS
GOODLAND KS    CLOUDY    29  27  92 SE15G21   30.38S WCI  18
HILL CITY KS   CLOUDY    28  25  88 E13       30.48F WCI  17
IMPERIAL NEB   CLOUDY    30  29  96 SE16      30.38F WCI  19
MCCOOK NEB     FOG       27  26  96 E12       30.44S VSB 1/4 WCI  17
AKRON CO       FOG       29  29 100 SE20      30.27F VSB 1/2 WCI  16
BURLINGTON CO  FOG       30  27  88 SE16      30.34F VSB 1/2 WCI  19
LIMON CO       CLOUDY    28  28 100 S5        30.28S
$$

...UNOFFICIAL OBSERVATIONS...

CITY           SKY/WX    TMP DP  RH WIND       PRES   REMARKS
COLBY KS       CLOUDY    30  30 100 SE14      30.42S WCI  20
GOVE KS          N/A     32  32 100 MISG        N/A
LENORA KS        N/A     27  32 100 MISG        N/A
NORTON KS      CLOUDY    27  23  86 E10       30.46  FOG     WCI  17
SHARON SPRINGS   N/A     30  28  92 S8G16       N/A
KIT CARSON CO    N/A     31  28  89 MISG        N/A
YUMA CO          N/A     30  29  95 S13         N/A  WCI  20
$$



USA.gov is the U.S. government's official web portal to all federal, state and local government web resources and services.